SCP
0 0 0 0 0 0 0 -0 -0 -0 -0 0 0 0 0 0 0 -0 -0 -0 -0 0 -0 -0 -0 0 0 0 0 0 0 0 0 0 0 0 0 0 0 0 0 0 0 0 -0 -0 -0
0 0 0 0 0 0 0 -0 -0 -0 -0 -0 0 0 0 -0 -0 -0 -0 -0 0 -0 -0 -0 -0 -0 0 0 0 0 0 0 0 0 0 0 0 0 0 0 0 0 0 0 0 -0 -0
0 0 0 0 0 0 -0 -0 -0 -0 -0 0 -0 -0 -0 -0 -0 -0 -0 -0 -0 -0 -0 -0 -0 -0 0 0 0 -0 0 0 0 0 0 0 0 0 0 0 0 0 0 0 0 0 0
0 0 0 0 0 0 0 0 -0 -0 -0 -0 -0 -0 -0 -0 -0 -0 -0 -0 0 -0 -0 -0 -0 -0 0 -0 0 -0 0 0 0 0 0 0 0 0 0 0 0 0 0 0 0 0 0
-0 0 0 0 0 0 0 0 -0 -0 -0 0 -0 -0 -0 -0 -0 -0 -0 -0 -0 -0 -0 -0 -0 -0 0 0 0 0 0 0 0 0 0 0 0 0 0 0 0 0 0 0 0 0 0
-0 -0 -0 -0 -0 0 0 0 -0 -0 -0 -0 -0 -0 -0 -0 -0 -0 -0 -0 -0 -0 -0 -0 -0 -0 0 0 0 0 0 0 0 0 0 0 0 0 0 0 0 0 0 0 0 0 0
-0 -0 -0 -0 -0 -0 0 -0 -0 -0 -0 -0 -0 -0 -0 -0 -0 -0 -0 -0 -0 -0 -0 -0 -0 -0 -0 -0 0 -0 0 0 0 0 0 0 0 0 0 0 0 0 0 0 0 -0 -0
0 0 0 -0 -0 -0 -0 0 -0 -0 -0 -0 -0 -0 -0 -0 -0 -0 -0 0 0 -0 -0 -0 -0 -0 -0 -0 0 0 -0 0 0 0 0 0 0 0 0 0 0 0 0 0 0 0 -0
0 0 0 0 -0 -0 -0 0 -0 -0 -0 -0 -0 -0 -0 -0 -0 -0 -0 -0 0 0 -0 -0 -0 -0 -0 -0 -0 0 0 0 0 0 0 0 0 0 0 0 0 0 0 0 0 -0 0
-0 -0 0 0 -0 0 0 0 0 0 0 -0 -0 -0 -0 -0 -0 -0 -0 0 0 0 -0 -0 -0 -0 0 -0 0 -0 0 0 0 0 0 0 0 0 0 0 0 0 0 0 0 -0 -0
-0 -0 -0 -0 0 0 0 0 0 0 0 0 -0 -0 -0 -0 -0 -0 -0 -0 0 0 0 -0 -0 0 -0 -0 0 0 0 -0 0 0 0 0 0 0 0 0 0 0 0 0 0 0 -0
0 0 0 0 0 0 0 0 0 0 0 0 0 -0 -0 -0 -0 -0 -0 -0 -0 -0 0 -0 -0 -0 0 -0 -0 -0 -0 -0 -0 -0 0 0 0 0 0 0 0 0 0 0 0 0 0
0 0 0 0 0 0 0 0 0 0 0 0 0 -0 -0 -0 -0 -0 -0 -0 0 0 -0 0 0 -0 0 0 -0 -0 0 0 -0 -0 0 0 0 0 0 0 0 0 0 0 0 0 0
0 0 0 0 0 0 0 0 0 -0 0 -0 -0 -0 -0 -0 -0 -0 -0 0 0 0 0 -0 -0 -0 0 0 0 -0 -0 -0 0 0 0 0 0 0 0 0 0 -0 0 0 0 0 0
0 0 0 0 0 0 0 0 0 -0 0 -0 -0 -0 -0 -0 -0 -0 0 0 0 0 0 -0 -0 0 0 0 0 -0 -0 -0 -0 0 -0 0 -0 0 0 0 0 0 0 0 0 0 0
0 0 0 0 0 0 0 0 0 -0 -0 -0 -0 -0 -0 -0 -0 -0 0 0 0 0 0 0 0 0 0 -0 0 -0 -0 -0 -0 0 -0 0 0 0 0 0 0 0 0 0 0 0 0
-0 0 0 0 0 0 0 0 0 -0 -0 0 0 0 -0 -0 -0 -0 0 0 0 -0 0 0 0 0 0 0 0 -0 -0 -0 0 0 -0 -0 0 0 0 0 0 0 0 0 0 0 0
0 0 0 0 0 0 0 0 0 0 -0 0 0 0 -0 0 0 0 0 0 0 0 0 0 0 0 -0 0 -0 0 -0 0 0 0 0 0 0 0 0 0 0 0 0 0 0 0 0
0 -0 0 0 0 0 0 0 0 0 0 0 0 0 0 0 0 0 0 0 0 0 0 0 0 0 0 0 0 0 0 0 0 0 0 0 0 0 0 0 0 0 0 0 0 0 0
0 0 0 0 0 0 0 0 0 0 0 0 0 0 0 0 0 0 0 0 0 0 0 0 0 0 0 0 0 0 0 0 0 0 0 0 0 0 0 0 0 0 0 0 0 0 -0
0 0 0 0 0 0 0 0 0 0 0 0 0 0 0 0 0 0 0 0 0 0 0 0 0 0 0 0 0 0 0 0 0 0 0 0 0 0 0 0 0 0 0 0 0 0 0
0 0 0 0 0 0 0 0 0 0 0 0 0 0 0 0 0 0 0 0 0 0 0 0 0 0 0 0 0 0 0 0 0 0 0 0 0 0 0 0 0 0 1 0 0 0 0
0 0 0 0 0 0 0 0 0 0 0 0 0 0 0 0 0 0 0 0 0 0 0 0 0 0 0 0 0 0 0 0 0 0 0 0 0 0 0 0 0 0 0 0 0 0 0
0 0 0 0 0 0 0 0 0 0 0 0 0 0 0 0 0 0 0 0 0 0 0 0 0 0 0 0 0 0 0 0 0 0 0 0 0 0 0 0 0 0 0 0 0 0 0
0 0 0 0 0 0 0 0 0 0 0 0 0 0 0 0 0 0 0 0 0 0 0 0 0 0 -0 0 0 0 0 0 0 0 0 0 0 0 0 0 0 0 0 0 0 0 0
0 0 0 0 0 0 0 -0 0 0 0 0 0 0 0 0 0 0 0 0 0 0 0 0 0 0 0 0 0 0 0 0 0 0 0 0 0 0 0 0 0 0 0 0 0 0 0
0 0 0 0 0 0 -0 -0 0 0 0 0 0 0 0 0 0 0 0 0 0 0 0 0 0 0 0 0 0 0 0 0 0 0 0 0 0 0 0 0 0 0 0 0 0 0 0
0 0 0 0 0 0 0 -0 -0 0 0 0 0 0 0 0 0 0 0 0 0 0 0 0 0 0 0 0 0 0 0 0 0 0 0 0 0 0 0 0 0 0 0 0 0 0 0
0 0 0 0 0 0 0 0 0 0 0 0 0 0 0 0 0 0 0 0 0 0 0 0 0 0 0 0 0 0 0 0 0 0 0 0 0 0 0 0 0 0 0 0 0 0 0
Wind_Speed_500mb
36 35 32 29 27 27 26 25 24 22 19 17 17 17 19 20 21 21 22 24 26 27 24 22 19 15 9 9 10 14 7 24 31 29 23 24 22 9 6 1 2 4 9 12 16 28 22
38 36 33 29 28 28 27 26 24 22 20 17 17 17 18 19 20 21 21 22 26 27 23 20 18 12 10 8 13 20 19 24 30 28 20 23 14 9 7 6 6 14 24 22 16 15 12
38 37 35 31 28 27 27 26 25 23 21 19 17 17 18 19 20 20 19 22 25 25 19 20 18 13 11 8 14 18 26 20 17 23 18 18 20 6 4 14 25 19 18 19 15 6 8
42 38 36 34 31 29 28 28 26 24 22 20 18 18 19 20 19 17 19 21 25 19 16 18 18 12 9 9 3 7 13 14 15 18 18 24 16 7 3 19 11 7 7 6 4 6 10
44 42 38 34 32 32 31 30 28 26 23 22 21 20 20 19 17 14 18 26 20 10 12 11 12 10 7 5 5 5 6 6 14 23 16 23 12 4 7 12 8 3 5 9 7 3 8
40 39 39 38 38 35 33 32 30 27 25 24 24 23 22 18 12 11 20 22 13 6 15 6 12 7 6 7 7 5 18 11 16 29 17 11 6 6 5 11 10 10 7 6 8 7 1
39 38 39 40 41 39 36 34 32 29 27 26 25 26 23 15 5 9 20 13 12 6 11 5 8 4 1 7 9 15 24 25 27 6 6 3 11 24 16 9 5 9 10 12 8 8 8
40 40 39 39 40 41 40 37 35 32 29 27 27 26 21 9 5 9 16 13 20 12 13 6 6 7 8 3 10 22 22 7 7 9 9 9 21 9 7 8 6 6 13 10 9 15 5
42 41 41 41 40 41 42 40 36 34 30 28 27 27 18 5 9 7 8 18 29 21 5 7 6 3 3 11 8 23 29 14 8 9 8 18 10 15 12 14 16 8 7 12 2 13 5
43 42 42 41 41 41 41 42 40 37 33 29 27 24 11 8 9 4 6 23 29 11 3 5 1 3 7 5 5 17 26 7 5 13 14 9 8 15 12 16 17 13 15 11 14 7 3
42 43 43 43 43 43 42 42 42 39 34 28 25 19 6 13 7 1 8 25 21 4 4 6 1 2 3 2 8 12 19 6 8 13 9 8 16 16 15 17 18 3 16 14 8 3 3
43 44 44 45 45 45 45 43 41 41 36 28 22 13 4 10 9 5 11 26 6 3 5 4 1 1 5 0 3 8 9 5 5 6 3 6 3 7 5 4 23 23 15 7 6 5 7
46 45 45 46 46 47 47 45 43 40 37 26 19 6 2 6 7 6 13 13 3 4 4 7 4 3 2 3 5 4 8 8 5 5 7 4 8 6 9 12 17 13 16 4 7 7 5
47 48 47 46 46 46 47 46 44 42 38 26 13 3 5 7 9 8 13 1 5 2 4 4 4 2 6 6 6 4 6 5 6 7 8 6 12 21 18 16 15 28 26 9 7 7 2
50 49 48 48 47 46 47 47 46 42 39 25 10 6 6 10 6 4 1 3 4 5 4 7 1 5 3 2 2 3 1 2 4 11 8 9 4 7 19 13 17 13 15 3 1 4 6
51 52 50 47 47 46 46 47 47 42 38 26 10 7 10 12 9 2 2 3 2 7 6 2 2 2 2 5 3 3 3 1 4 0 12 0 2 3 12 11 6 14 24 8 5 9 9
53 52 50 48 46 45 45 46 47 44 37 23 7 5 7 13 10 1 3 4 8 10 9 4 4 3 2 1 2 4 1 1 8 3 5 3 3 6 13 12 13 10 11 5 3 10 5
52 51 49 47 45 44 44 43 45 46 37 23 4 4 2 19 3 2 5 7 3 6 4 4 1 3 2 2 3 3 3 2 16 3 5 1 1 5 4 4 3 2 2 17 14 9 1
49 51 49 44 42 41 41 41 40 41 40 35 19 2 15 8 6 5 3 5 7 4 5 6 4 2 2 4 2 2 1 4 14 5 5 4 5 3 3 7 6 5 4 1 5 1 9
49 46 45 42 39 39 38 38 36 34 32 29 9 3 3 7 6 5 6 6 4 6 4 5 4 5 4 3 2 4 1 3 9 10 12 1 6 6 14 3 3 5 7 2 10 7 5
51 43 41 38 39 35 36 36 33 31 26 21 5 1 1 4 6 5 5 2 4 8 3 5 4 5 6 5 2 1 2 2 3 10 6 1 5 5 8 4 9 6 12 5 3 9 4
49 38 37 34 34 34 34 34 32 27 22 11 5 4 5 5 4 7 7 9 9 8 13 10 8 9 9 6 9 9 4 0 2 6 5 4 6 3 6 14 11 5 18 4 6 6 6
40 35 34 31 30 30 33 36 34 26 17 6 6 6 3 4 4 6 7 7 8 2 9 10 16 11 9 6 8 6 6 9 4 2 3 4 9 5 7 3 12 5 6 3 1 1 3
31 32 29 26 28 30 34 35 33 28 16 10 10 6 3 6 7 9 4 4 9 15 6 9 22 11 10 21 26 16 17 13 14 17 5 6 7 0 3 3 8 5 2 4 1 2 4
30 29 25 24 25 29 33 36 35 29 20 10 11 9 6 7 9 17 19 12 8 8 9 17 11 8 32 11 5 3 1 2 5 12 10 4 7 5 5 7 6 3 10 10 8 4 1
30 26 22 24 25 28 30 34 34 23 20 14 12 18 9 6 11 15 6 7 6 7 6 7 13 30 19 6 4 7 8 5 6 7 4 11 10 5 4 8 10 1 6 5 4 9 10
28 25 22 23 24 27 30 36 27 21 18 15 13 12 15 10 19 8 10 5 4 5 6 9 17 10 11 5 5 5 5 1 5 7 6 4 3 8 8 8 5 5 9 9 9 4 8
27 25 23 22 23 26 28 31 26 24 17 15 13 15 26 11 39 21 18 7 3 4 5 9 11 5 5 5 5 7 6 7 5 2 4 7 7 5 5 6 10 16 11 8 5 6 7
27 25 23 23 23 25 26 28 22 23 20 15 19 15 24 31 23 22 35 42 36 21 3 4 3 10 13 7 4 6 5 6 6 6 2 6 5 1 9 1 3 18 3 7 10 13 8
Wind_Direction_500mb
35 33 31 32 32 28 22 18 15 11 6 1 359 360 1 359 357 356 353 353 354 355 356 5 10 13 66 87 58 43 124 180 182 177 165 159 151 136 137 249 50 179 97 59 131 138 132
31 30 29 29 28 24 20 17 15 11 5 358 349 347 349 349 347 350 347 346 347 349 351 1 8 17 100 84 79 65 78 171 184 182 162 156 163 127 96 55 50 102 98 92 95 122 113
31 28 26 26 24 22 19 16 13 11 7 0 350 343 341 343 341 343 338 341 346 346 354 6 26 69 86 94 102 85 84 109 175 174 163 153 156 166 134 117 134 120 92 85 61 76 87
30 26 24 22 20 18 17 13 11 8 5 1 356 347 343 340 339 339 333 342 341 340 357 10 46 80 75 122 98 86 93 92 140 160 161 172 133 97 77 123 121 121 139 126 61 149 159
28 26 23 20 18 18 15 10 10 8 5 359 355 350 343 338 340 342 338 337 338 338 4 19 42 80 90 359 301 261 185 69 145 158 143 169 167 89 145 160 122 73 165 149 154 69 161
21 22 22 21 20 17 14 11 8 5 2 356 350 346 341 341 350 357 349 342 350 9 353 48 28 106 54 60 64 99 140 93 128 132 115 127 113 171 138 193 184 172 156 156 170 165 36
17 17 18 19 19 17 13 10 6 2 357 353 349 343 341 347 13 35 11 7 1 359 355 336 309 287 102 67 94 119 142 107 128 110 134 104 181 197 172 197 73 133 146 139 123 164 215
12 11 13 14 15 15 13 9 4 360 355 352 351 346 343 5 104 72 44 51 31 329 316 328 320 239 202 197 113 140 158 140 145 125 128 159 199 182 146 146 142 157 147 137 163 158 235
8 7 9 9 9 11 10 8 3 357 353 350 350 349 348 74 127 101 48 19 357 340 263 307 319 318 118 159 150 169 168 155 136 142 160 179 173 167 169 161 156 181 237 167 122 145 146
5 5 6 5 5 6 5 4 2 356 351 348 350 352 358 127 141 85 26 355 350 346 15 24 57 146 170 152 100 179 177 169 144 158 171 183 135 164 175 188 195 211 208 162 152 184 311
3 3 2 2 1 0 1 360 358 354 348 344 349 352 357 168 157 107 351 346 345 341 87 352 83 166 159 184 140 181 183 174 161 154 206 145 175 174 189 207 189 136 151 168 202 101 293
0 359 358 357 357 356 355 354 354 351 347 341 344 347 333 185 190 240 330 337 342 233 68 20 84 88 164 22 111 129 167 127 115 166 247 252 172 206 214 152 197 140 109 88 78 282 250
359 356 354 352 352 352 352 352 350 348 344 338 333 341 49 170 185 266 315 329 252 58 333 9 357 16 108 83 112 133 172 198 215 224 220 230 217 159 165 111 149 177 169 219 237 225 256
351 350 349 347 347 348 350 350 349 346 342 335 321 253 256 241 233 273 323 156 74 353 280 327 332 54 56 357 64 121 135 245 192 227 257 235 194 185 172 202 190 197 203 197 259 226 134
347 344 341 341 342 344 346 348 348 347 339 335 308 264 238 208 207 257 166 106 168 216 306 314 176 82 59 108 122 172 138 277 257 194 233 194 208 144 177 147 172 168 201 125 126 265 271
338 339 337 335 336 340 343 345 346 348 341 334 308 269 198 206 193 261 138 126 227 228 296 262 110 307 87 22 168 174 195 118 314 77 208 226 183 114 137 138 94 209 156 191 207 238 239
332 332 332 331 332 335 339 343 343 348 345 338 305 194 194 168 170 217 150 174 251 253 216 225 150 133 204 79 54 134 184 148 3 358 187 187 268 85 158 215 186 152 179 151 184 259 270
330 331 329 328 329 331 336 341 343 346 352 343 325 209 159 170 170 26 172 190 242 279 184 187 153 114 199 122 121 156 101 320 345 324 334 36 223 125 83 37 152 240 189 199 231 198 289
324 327 328 327 329 330 334 339 344 347 351 356 339 265 173 160 194 203 236 260 261 252 218 147 174 30 28 136 166 218 288 6 9 45 17 353 48 138 146 121 112 43 24 189 133 135 215
320 323 325 326 329 330 332 337 343 344 346 344 330 228 196 203 171 179 187 226 255 230 247 129 147 140 144 102 49 155 153 37 358 39 50 204 85 311 190 178 148 129 34 295 258 216 155
317 318 321 322 325 330 331 334 341 341 342 337 308 350 199 188 183 191 210 266 220 177 181 181 137 214 179 160 134 90 291 332 133 12 78 25 103 120 56 48 92 184 77 38 144 110 265
310 314 316 319 323 329 333 332 337 342 336 321 308 342 335 278 264 191 174 212 214 197 176 199 192 171 183 199 208 179 195 234 16 1 59 17 125 85 56 84 53 97 81 32 66 107 111
303 310 310 313 318 326 332 332 333 338 337 305 280 285 305 261 207 203 200 197 232 202 227 230 172 142 183 184 128 69 55 62 92 1 65 46 141 188 170 5 338 201 76 85 26 51 354
294 303 304 311 317 327 332 335 331 331 327 288 259 259 239 258 238 219 204 216 247 222 213 173 156 140 163 135 107 94 74 69 75 61 29 136 113 191 123 202 228 68 75 69 90 351 108
290 298 299 307 314 323 329 332 330 324 317 294 254 221 225 259 259 275 251 238 282 195 191 175 163 156 156 122 85 78 52 214 89 41 46 6 141 123 227 211 333 183 195 197 210 171 157
286 288 293 303 311 321 324 327 327 319 312 301 266 227 216 281 233 256 297 247 209 173 140 120 137 151 157 89 122 180 209 201 198 151 29 71 69 256 162 238 243 69 155 144 158 238 168
279 279 287 294 307 318 320 326 334 326 298 294 270 228 211 254 270 241 227 256 227 157 137 133 151 162 171 137 150 170 202 246 199 183 165 135 93 233 191 235 275 201 160 150 217 89 130
270 273 281 290 304 314 317 325 331 330 304 283 264 231 216 252 258 253 243 244 316 262 155 149 133 163 125 143 182 169 191 182 204 144 197 200 186 172 163 200 247 158 139 224 81 132 135
266 270 278 289 299 308 312 312 326 319 310 277 267 249 229 236 260 261 252 244 248 236 357 171 241 183 158 111 185 135 150 174 198 201 174 213 231 228 219 144 88 183 217 209 156 138 130
Wind_Speed_850mb
36 35 32 29 27 27 26 25 24 22 19 17 17 17 19 20 21 21 22 24 26 27 24 22 19 15 9 9 10 14 7 24 31 29 23 24 22 9 6 1 2 4 9 12 16 28 22
38 36 33 29 28 28 27 26 24 22 20 17 17 17 18 19 20 21 21 22 26 27 23 20 18 12 10 8 13 20 19 24 30 28 20 23 14 9 7 6 6 14 24 22 16 15 12
38 37 35 31 28 27 27 26 25 23 21 19 17 17 18 19 20 20 19 22 25 25 19 20 18 13 11 8 14 18 26 20 17 23 18 18 20 6 4 14 25 19 18 19 15 6 8
42 38 36 34 31 29 28 28 26 24 22 20 18 18 19 20 19 17 19 21 25 19 16 18 18 12 9 9 3 7 13 14 15 18 18 24 16 7 3 19 11 7 7 6 4 6 10
44 42 38 34 32 32 31 30 28 26 23 22 21 20 20 19 17 14 18 26 20 10 12 11 12 10 7 5 5 5 6 6 14 23 16 23 12 4 7 12 8 3 5 9 7 3 8
40 39 39 38 38 35 33 32 30 27 25 24 24 23 22 18 12 11 20 22 13 6 15 6 12 7 6 7 7 5 18 11 16 29 17 11 6 6 5 11 10 10 7 6 8 7 1
39 38 39 40 41 39 36 34 32 29 27 26 25 26 23 15 5 9 20 13 12 6 11 5 8 4 1 7 9 15 24 25 27 6 6 3 11 24 16 9 5 9 10 12 8 8 8
40 40 39 39 40 41 40 37 35 32 29 27 27 26 21 9 5 9 16 13 20 12 13 6 6 7 8 3 10 22 22 7 7 9 9 9 21 9 7 8 6 6 13 10 9 15 5
42 41 41 41 40 41 42 40 36 34 30 28 27 27 18 5 9 7 8 18 29 21 5 7 6 3 3 11 8 23 29 14 8 9 8 18 10 15 12 14 16 8 7 12 2 13 5
43 42 42 41 41 41 41 42 40 37 33 29 27 24 11 8 9 4 6 23 29 11 3 5 1 3 7 5 5 17 26 7 5 13 14 9 8 15 12 16 17 13 15 11 14 7 3
42 43 43 43 43 43 42 42 42 39 34 28 25 19 6 13 7 1 8 25 21 4 4 6 1 2 3 2 8 12 19 6 8 13 9 8 16 16 15 17 18 3 16 14 8 3 3
43 44 44 45 45 45 45 43 41 41 36 28 22 13 4 10 9 5 11 26 6 3 5 4 1 1 5 0 3 8 9 5 5 6 3 6 3 7 5 4 23 23 15 7 6 5 7
46 45 45 46 46 47 47 45 43 40 37 26 19 6 2 6 7 6 13 13 3 4 4 7 4 3 2 3 5 4 8 8 5 5 7 4 8 6 9 12 17 13 16 4 7 7 5
47 48 47 46 46 46 47 46 44 42 38 26 13 3 5 7 9 8 13 1 5 2 4 4 4 2 6 6 6 4 6 5 6 7 8 6 12 21 18 16 15 28 26 9 7 7 2
50 49 48 48 47 46 47 47 46 42 39 25 10 6 6 10 6 4 1 3 4 5 4 7 1 5 3 2 2 3 1 2 4 11 8 9 4 7 19 13 17 13 15 3 1 4 6
51 52 50 47 47 46 46 47 47 42 38 26 10 7 10 12 9 2 2 3 2 7 6 2 2 2 2 5 3 3 3 1 4 0 12 0 2 3 12 11 6 14 24 8 5 9 9
53 52 50 48 46 45 45 46 47 44 37 23 7 5 7 13 10 1 3 4 8 10 9 4 4 3 2 1 2 4 1 1 8 3 5 3 3 6 13 12 13 10 11 5 3 10 5
52 51 49 47 45 44 44 43 45 46 37 23 4 4 2 19 3 2 5 7 3 6 4 4 1 3 2 2 3 3 3 2 16 3 5 1 1 5 4 4 3 2 2 17 14 9 1
49 51 49 44 42 41 41 41 40 41 40 35 19 2 15 8 6 5 3 5 7 4 5 6 4 2 2 4 2 2 1 4 14 5 5 4 5 3 3 7 6 5 4 1 5 1 9
49 46 45 42 39 39 38 38 36 34 32 29 9 3 3 7 6 5 6 6 4 6 4 5 4 5 4 3 2 4 1 3 9 10 12 1 6 6 14 3 3 5 7 2 10 7 5
51 43 41 38 39 35 36 36 33 31 26 21 5 1 1 4 6 5 5 2 4 8 3 5 4 5 6 5 2 1 2 2 3 10 6 1 5 5 8 4 9 6 12 5 3 9 4
49 38 37 34 34 34 34 34 32 27 22 11 5 4 5 5 4 7 7 9 9 8 13 10 8 9 9 6 9 9 4 0 2 6 5 4 6 3 6 14 11 5 18 4 6 6 6
40 35 34 31 30 30 33 36 34 26 17 6 6 6 3 4 4 6 7 7 8 2 9 10 16 11 9 6 8 6 6 9 4 2 3 4 9 5 7 3 12 5 6 3 1 1 3
31 32 29 26 28 30 34 35 33 28 16 10 10 6 3 6 7 9 4 4 9 15 6 9 22 11 10 21 26 16 17 13 14 17 5 6 7 0 3 3 8 5 2 4 1 2 4
30 29 25 24 25 29 33 36 35 29 20 10 11 9 6 7 9 17 19 12 8 8 9 17 11 8 32 11 5 3 1 2 5 12 10 4 7 5 5 7 6 3 10 10 8 4 1
30 26 22 24 25 28 30 34 34 23 20 14 12 18 9 6 11 15 6 7 6 7 6 7 13 30 19 6 4 7 8 5 6 7 4 11 10 5 4 8 10 1 6 5 4 9 10
28 25 22 23 24 27 30 36 27 21 18 15 13 12 15 10 19 8 10 5 4 5 6 9 17 10 11 5 5 5 5 1 5 7 6 4 3 8 8 8 5 5 9 9 9 4 8
27 25 23 22 23 26 28 31 26 24 17 15 13 15 26 11 39 21 18 7 3 4 5 9 11 5 5 5 5 7 6 7 5 2 4 7 7 5 5 6 10 16 11 8 5 6 7
27 25 23 23 23 25 26 28 22 23 20 15 19 15 24 31 23 22 35 42 36 21 3 4 3 10 13 7 4 6 5 6 6 6 2 6 5 1 9 1 3 18 3 7 10 13 8
Wind_Direction_850mb
35 33 31 32 32 28 22 18 15 11 6 1 359 360 1 359 357 356 353 353 354 355 356 5 10 13 66 87 58 43 124 180 182 177 165 159 151 136 137 249 50 179 97 59 131 138 132
31 30 29 29 28 24 20 17 15 11 5 358 349 347 349 349 347 350 347 346 347 349 351 1 8 17 100 84 79 65 78 171 184 182 162 156 163 127 96 55 50 102 98 92 95 122 113
31 28 26 26 24 22 19 16 13 11 7 0 350 343 341 343 341 343 338 341 346 346 354 6 26 69 86 94 102 85 84 109 175 174 163 153 156 166 134 117 134 120 92 85 61 76 87
30 26 24 22 20 18 17 13 11 8 5 1 356 347 343 340 339 339 333 342 341 340 357 10 46 80 75 122 98 86 93 92 140 160 161 172 133 97 77 123 121 121 139 126 61 149 159
28 26 23 20 18 18 15 10 10 8 5 359 355 350 343 338 340 342 338 337 338 338 4 19 42 80 90 359 301 261 185 69 145 158 143 169 167 89 145 160 122 73 165 149 154 69 161
21 22 22 21 20 17 14 11 8 5 2 356 350 346 341 341 350 357 349 342 350 9 353 48 28 106 54 60 64 99 140 93 128 132 115 127 113 171 138 193 184 172 156 156 170 165 36
17 17 18 19 19 17 13 10 6 2 357 353 349 343 341 347 13 35 11 7 1 359 355 336 309 287 102 67 94 119 142 107 128 110 134 104 181 197 172 197 73 133 146 139 123 164 215
12 11 13 14 15 15 13 9 4 360 355 352 351 346 343 5 104 72 44 51 31 329 316 328 320 239 202 197 113 140 158 140 145 125 128 159 199 182 146 146 142 157 147 137 163 158 235
8 7 9 9 9 11 10 8 3 357 353 350 350 349 348 74 127 101 48 19 357 340 263 307 319 318 118 159 150 169 168 155 136 142 160 179 173 167 169 161 156 181 237 167 122 145 146
5 5 6 5 5 6 5 4 2 356 351 348 350 352 358 127 141 85 26 355 350 346 15 24 57 146 170 152 100 179 177 169 144 158 171 183 135 164 175 188 195 211 208 162 152 184 311
3 3 2 2 1 0 1 360 358 354 348 344 349 352 357 168 157 107 351 346 345 341 87 352 83 166 159 184 140 181 183 174 161 154 206 145 175 174 189 207 189 136 151 168 202 101 293
0 359 358 357 357 356 355 354 354 351 347 341 344 347 333 185 190 240 330 337 342 233 68 20 84 88 164 22 111 129 167 127 115 166 247 252 172 206 214 152 197 140 109 88 78 282 250
359 356 354 352 352 352 352 352 350 348 344 338 333 341 49 170 185 266 315 329 252 58 333 9 357 16 108 83 112 133 172 198 215 224 220 230 217 159 165 111 149 177 169 219 237 225 256
351 350 349 347 347 348 350 350 349 346 342 335 321 253 256 241 233 273 323 156 74 353 280 327 332 54 56 357 64 121 135 245 192 227 257 235 194 185 172 202 190 197 203 197 259 226 134
347 344 341 341 342 344 346 348 348 347 339 335 308 264 238 208 207 257 166 106 168 216 306 314 176 82 59 108 122 172 138 277 257 194 233 194 208 144 177 147 172 168 201 125 126 265 271
338 339 337 335 336 340 343 345 346 348 341 334 308 269 198 206 193 261 138 126 227 228 296 262 110 307 87 22 168 174 195 118 314 77 208 226 183 114 137 138 94 209 156 191 207 238 239
332 332 332 331 332 335 339 343 343 348 345 338 305 194 194 168 170 217 150 174 251 253 216 225 150 133 204 79 54 134 184 148 3 358 187 187 268 85 158 215 186 152 179 151 184 259 270
330 331 329 328 329 331 336 341 343 346 352 343 325 209 159 170 170 26 172 190 242 279 184 187 153 114 199 122 121 156 101 320 345 324 334 36 223 125 83 37 152 240 189 199 231 198 289
324 327 328 327 329 330 334 339 344 347 351 356 339 265 173 160 194 203 236 260 261 252 218 147 174 30 28 136 166 218 288 6 9 45 17 353 48 138 146 121 112 43 24 189 133 135 215
320 323 325 326 329 330 332 337 343 344 346 344 330 228 196 203 171 179 187 226 255 230 247 129 147 140 144 102 49 155 153 37 358 39 50 204 85 311 190 178 148 129 34 295 258 216 155
317 318 321 322 325 330 331 334 341 341 342 337 308 350 199 188 183 191 210 266 220 177 181 181 137 214 179 160 134 90 291 332 133 12 78 25 103 120 56 48 92 184 77 38 144 110 265
310 314 316 319 323 329 333 332 337 342 336 321 308 342 335 278 264 191 174 212 214 197 176 199 192 171 183 199 208 179 195 234 16 1 59 17 125 85 56 84 53 97 81 32 66 107 111
303 310 310 313 318 326 332 332 333 338 337 305 280 285 305 261 207 203 200 197 232 202 227 230 172 142 183 184 128 69 55 62 92 1 65 46 141 188 170 5 338 201 76 85 26 51 354
294 303 304 311 317 327 332 335 331 331 327 288 259 259 239 258 238 219 204 216 247 222 213 173 156 140 163 135 107 94 74 69 75 61 29 136 113 191 123 202 228 68 75 69 90 351 108
290 298 299 307 314 323 329 332 330 324 317 294 254 221 225 259 259 275 251 238 282 195 191 175 163 156 156 122 85 78 52 214 89 41 46 6 141 123 227 211 333 183 195 197 210 171 157
286 288 293 303 311 321 324 327 327 319 312 301 266 227 216 281 233 256 297 247 209 173 140 120 137 151 157 89 122 180 209 201 198 151 29 71 69 256 162 238 243 69 155 144 158 238 168
279 279 287 294 307 318 320 326 334 326 298 294 270 228 211 254 270 241 227 256 227 157 137 133 151 162 171 137 150 170 202 246 199 183 165 135 93 233 191 235 275 201 160 150 217 89 130
270 273 281 290 304 314 317 325 331 330 304 283 264 231 216 252 258 253 243 244 316 262 155 149 133 163 125 143 182 169 191 182 204 144 197 200 186 172 163 200 247 158 139 224 81 132 135
266 270 278 289 299 308 312 312 326 319 310 277 267 249 229 236 260 261 252 244 248 236 357 171 241 183 158 111 185 135 150 174 198 201 174 213 231 228 219 144 88 183 217 209 156 138 130